Columbia, MO

1:24 AM CDT on September 23, 2017 (GMT -0500)
Columbia Regional

Weather History for KCOU - October, 2014

Change the Weather History Date:

Sunday, October 26, 2014

  Actual Average Record
Temperature  
Mean Temperature 70 °F 53 °F  
Max Temperature 83 °F 64 °F 87 °F (1891)
Min Temperature 56 °F 42 °F 24 °F (1942)
Degree Days  
Heating Degree Days 0 12  
Month to date heating degree days 181 231  
Since 1 July heating degree days 228 299  
Cooling Degree Days 5 0  
Month to date cooling degree days 13 15  
Year to date cooling degree days 1261 1242  
Growing Degree Days 18 (Base 50)    
Moisture  
Dew Point 52 °F    
Average Humidity 58    
Maximum Humidity 70    
Minimum Humidity 45    
Precipitation  
Precipitation 0.00 in 0.10 in 1.16 in (1919)
Month to date precipitation 9.86 2.84  
Year to date precipitation 40.30 36.46  
Snow  
Snow 0.00 in 0.00 in 1.20 in (1913)
Month to date snowfall 0.0 0.0  
Since 1 July snowfall 0.0 0.0  
Since 1 September snowfall 0.0 0.0  
Snow Depth 0.00 in    
Sea Level Pressure  
Sea Level Pressure 29.88 in    
Wind  
Wind Speed 10 mph (SE)    
Max Wind Speed 18 mph    
Max Gust Speed 23 mph    
Visibility 10 miles    
Events      
T = Trace of Precipitation, MM = Missing Value Source: NWS Daily Summary

Daily Weather History Graph

Daily Weather History Graph

Search for Another Location

Airport or City:

Trip Planner

Search our weather history database for the weather conditions in past years. The results will help you decide how hot, cold, wet, or windy it might be!

Date:

Astronomy

Oct. 26, 2014 Rise Set
Actual Time 7:29 AM CDT 6:15 PM CDT
Civil Twilight 7:02 AM CDT 6:42 PM CDT
Nautical Twilight 6:31 AM CDT 7:13 PM CDT
Astronomical Twilight 6:00 AM CDT 7:44 PM CDT
Moon 10:06 AM CDT (10/26) 8:28 PM CDT (10/26)
Length of Visible Light 11h 40m
Length of Day
10h 46m
Waxing Crescent, 8% of the Moon is Illuminated
Oct 26
Waxing Crescent
Oct 30
First Quarter
Nov 6
Full
Nov 14
Last Quarter
Nov 22
New

Hourly Weather History & Observations

Time (CDT) Temp. Heat Index Dew Point Humidity Pressure Visibility Wind Dir Wind Speed Gust Speed Precip Events Conditions
12:54 AM 60.1 °F - 48.0 °F 64% 30.00 in 10.0 mi ENE 6.9 mph - N/A   Clear
1:54 AM 59.0 °F - 48.0 °F 67% 30.00 in 10.0 mi ENE 9.2 mph - N/A   Clear
2:54 AM 57.9 °F - 46.9 °F 67% 30.00 in 10.0 mi East 8.1 mph - N/A   Clear
3:54 AM 57.0 °F - 46.0 °F 67% 29.99 in 10.0 mi East 6.9 mph - N/A   Clear
4:54 AM 55.9 °F - 45.0 °F 67% 29.99 in 10.0 mi East 8.1 mph - N/A   Clear
5:54 AM 55.9 °F - 44.1 °F 64% 29.99 in 10.0 mi East 8.1 mph - N/A   Clear
6:54 AM 57.0 °F - 44.1 °F 62% 29.98 in 10.0 mi ESE 8.1 mph - N/A   Clear
7:54 AM 55.9 °F - 44.1 °F 64% 29.98 in 10.0 mi ESE 9.2 mph - N/A   Clear
8:54 AM 59.0 °F - 44.1 °F 58% 29.99 in 10.0 mi ESE 10.4 mph - N/A   Clear
9:54 AM 63.0 °F - 43.0 °F 48% 29.97 in 10.0 mi SE 13.8 mph 21.9 mph N/A   Clear
10:54 AM 68.0 °F - 46.0 °F 45% 29.94 in 10.0 mi SE 13.8 mph - N/A   Clear
11:54 AM 71.1 °F - 51.1 °F 49% 29.92 in 10.0 mi SE 11.5 mph - N/A   Clear
12:54 PM 75.0 °F - 55.0 °F 50% 29.88 in 10.0 mi SE 12.7 mph - N/A   Clear
1:54 PM 78.1 °F - 59.0 °F 52% 29.84 in 10.0 mi SE 12.7 mph - N/A   Clear
2:54 PM 80.1 °F 81.1 °F 61.0 °F 52% 29.80 in 10.0 mi SE 11.5 mph - N/A   Clear
3:54 PM 81.0 °F 81.9 °F 62.1 °F 52% 29.79 in 10.0 mi ESE 8.1 mph - N/A   Clear
4:54 PM 82.9 °F 83.7 °F 62.1 °F 49% 29.76 in 10.0 mi South 12.7 mph - N/A   Clear
5:12 PM 82.0 °F 82.0 °F 57.9 °F 44% 29.77 in 10.0 mi South 13.8 mph - N/A   Clear
5:54 PM 80.1 °F 80.6 °F 57.9 °F 47% 29.75 in 10.0 mi South 11.5 mph - N/A   Clear
6:54 PM 73.9 °F - 57.0 °F 55% 29.75 in 10.0 mi South 10.4 mph - N/A   Clear
7:54 PM 73.9 °F - 57.9 °F 57% 29.75 in 10.0 mi South 10.4 mph - N/A   Clear
8:54 PM 72.0 °F - 59.0 °F 64% 29.74 in 10.0 mi South 10.4 mph - N/A   Clear
9:54 PM 71.1 °F - 59.0 °F 66% 29.74 in 10.0 mi South 8.1 mph - N/A   Clear
10:54 PM 70.0 °F - 57.9 °F 65% 29.74 in 10.0 mi South 9.2 mph - N/A   Clear
11:54 PM 69.1 °F - 59.0 °F 70% 29.72 in 10.0 mi South 10.4 mph - N/A   Clear